Flag for U.S.A. Weather past 2 weeks in Decatur, Illinois, U.S.A.

Now
49 °F

Clear.


Feels Like: 45 °F
Forecast: 36 / 63 °F
Wind: 8 mph from West

Location: Decatur Airport

Current Time: Mar 30, 2015 at 12:48:34 AM

Latest Report: Mar 29, 2015 at 11:54 PM


Visibility: 10 mi

Pressure: 30.04 "Hg

Humidity: 69%

Dew point: 39 °F

Location of DecaturLocation

Historic Weather in Decatur — Graph

°F

Decatur temperature yesterday

Maximum temperature yesterday: 53 °F (at 4:54 PM)
Minimum temperature yesterday: 28 °F (at 12:54 AM)
Average temperature yesterday: 42 °F

Past Weeks' High & Low Weather Summary

 TemperatureHumidityPressure
High75 °F (Mar 16, 4:54 PM)93% (Mar 19, 9:54 PM)30.38 "Hg (Mar 19, 9:54 PM)
Low20 °F (Mar 28, 3:54 AM)30% (Mar 17, 4:54 PM)29.84 "Hg (Mar 25, 12:02 AM)
Average42 °F67%30.14 "Hg
* Reported Mar 14 11:54 PM — Mar 29 11:54 PM, Decatur, Weather by CustomWeather, © 2015

Note: Actual official high and low records may vary slightly from our data, if they occured in-between our weather recording intervals... More about our weather records

Advertising

Decatur weather history for previous 24 hours

 ConditionsComfort  
Time TempWeatherWind HumidityBarometerVisibility
11:54 PM
Sun, Mar 29
49 °FClear.8 mph69%30.04 "Hg10 mi
10:54 PM51 °FClear.10 mph66%30.02 "Hg10 mi
9:54 PM50 °FPassing clouds.13 mph68%29.99 "Hg10 mi
8:54 PM51 °FOvercast.12 mph69%29.97 "Hg10 mi
7:54 PM51 °FOvercast.13 mph69%29.94 "Hg10 mi
6:54 PM51 °FSunny.13 mph69%29.93 "Hg10 mi
5:54 PM52 °FSunny.16 mph61%29.92 "Hg10 mi
4:54 PM53 °FSunny.22 mph59%29.93 "Hg10 mi
3:54 PM47 °FPartly sunny.13 mph69%29.95 "Hg10 mi
2:54 PM48 °FMostly cloudy.22 mph50%29.95 "Hg10 mi
1:54 PM49 °FPassing clouds.21 mph46%29.99 "Hg10 mi
12:54 PM48 °FPartly sunny.26 mph48%29.96 "Hg10 mi
11:54 AM40 °FOvercast.20 mph63%30.05 "Hg10 mi
10:54 AM41 °FScattered clouds.22 mph43%30.13 "Hg10 mi
9:54 AM40 °FSunny.23 mph43%30.14 "Hg10 mi
8:54 AM37 °FSunny.23 mph54%30.16 "Hg10 mi
7:54 AM34 °FSunny.17 mph59%30.20 "Hg10 mi
6:54 AM31 °FClear.16 mph64%30.19 "Hg10 mi
5:54 AM31 °FClear.14 mph64%30.21 "Hg10 mi
4:54 AM31 °FClear.13 mph64%30.22 "Hg10 mi
3:54 AM31 °FClear.12 mph64%30.22 "Hg10 mi
2:54 AM30 °FClear.10 mph66%30.25 "Hg10 mi
1:54 AM30 °FClear.9 mph66%30.29 "Hg10 mi
12:54 AM28 °FClear.7 mph69%30.31 "Hg10 mi
Weather by CustomWeather, © 2015

See weather overviewHow to use our weather pages